sat.trackr.live / text

‹ back to catalog

STARLINK-5071

NORAD 55402 · 2023-014M

PAYLOAD ACTIVE UNKNOWN

§ Identity

Operator
Country
US
Launch date
2023-01-31
Launch site
AFWTR
Launch vehicle
Mass (kg)
RCS (m²)

Purposes: comms

External: N2YO · Heavens-Above · Gunter

§ Orbital elements

Epoch: 2026-09-20T11:51:16.790112Z

Period
96.11 min
Inclination
69.9976°
Eccentricity
0.0003671
Mean motion
14.98327902 rev/d
Perigee alt
569.5 km
Apogee alt
574.6 km
Semi-major
6,950.2 km
B*
1.8536e-5
RAAN
293.3489°
Arg perigee
269.6765°
Mean anomaly
90.3973°
Rev number
20,123

§ Raw data

STARLINK-50711 55402U 23014M   26263.49394433  .00000128  00000+0  18536-4 0  99912 55402  69.9976 293.3489 0003671 269.6765  90.3973 14.98327902201234

JSON: /api/v1/satellites/55402 · /tle

For live sub-satellite position, see the globe view (requires WebGL).

§ Visibility from observer

Set your observer location to see the next 7 days of passes ≥ 10°. The values pass through the URL so the page stays shareable.

No JS? Fill the form by hand. The geolocation button needs JavaScript.